[[{"header":{"parameterUnit":"m.s-1","parameterCategory":1,"la1":30.2991,"la2":30.254,"lo1":-89.0895,"lo2":-89.0444,"dy":0.0017,"dx":0.0017,"nx":28,"ny":28,"refTime":"2024-07-13T09:00:00:Z","depth":0,"parameterNumber":2,"parameterNumberName":"U-component_of_WINDS"},"data":[0,0,0,0,0,0,0,0,0,0,0,0,0,0,0,0,0,0,0,0,0,0,0,0,0,0,0,0,0,0,0,0,0,0,0,0,0,0,0,0,0,0,0,0,0,0,0,0,0,0,0,0,0,0,0,0,0,0,1.633,1.6331,0,1.6439,1.644,1.6441,1.6462,1.6461,1.646,1.6459,1.6573,1.6577,1.6581,0,0,0,0,0,0,0,0,0,0,0,0,0,1.6141,1.6144,1.633,1.6331,1.6332,1.6439,1.644,1.6442,1.6462,1.6461,1.646,1.6459,1.6572,1.6577,1.6581,0,0,0,0,0,0,0,0,0,0,0,0,0,1.6234,1.6146,1.6329,1.6355,1.6358,1.6438,1.644,1.6442,1.6462,1.6461,1.6459,1.6458,1.6571,1.6576,1.6582,1.6645,0,0,1.66,1.6602,0,0,0,0,0,0,0,0,1.6229,1.6241,1.635,1.6353,1.6357,1.6435,1.6416,1.651,1.6462,1.6423,1.6459,1.6457,1.6529,1.6538,1.6561,1.665,1.6655,1.66,1.6604,1.6606,1.6608,0,0,0,0,0,0,0,1.6222,1.6236,1.6373,1.6351,1.6356,1.6362,1.6374,1.6434,1.6482,1.6426,1.6428,1.644,1.653,1.6556,1.6564,1.6657,1.66,1.6605,1.6609,1.6611,1.6805,1.6806,0,0,0,0,0,0,1.6211,1.6231,1.6369,1.6376,1.6288,1.6367,1.638,1.6412,1.6481,1.6491,1.6441,1.6441,1.6546,1.6557,1.6568,1.6648,1.6606,1.6612,1.6615,1.6803,1.6805,1.6807,0,0,0,0,0,0,1.6207,1.6223,1.6365,1.6304,1.6323,1.6371,1.6407,1.6415,1.644,1.6493,1.6502,1.6458,1.6546,1.656,1.6626,1.6652,1.6614,1.662,1.6801,1.6804,1.6806,1.6806,0,0,0,0,0,0,1.6201,1.6221,1.6245,1.6304,1.6326,1.642,1.6409,1.6418,1.6449,1.645,1.6511,1.652,1.6546,1.6617,1.6632,1.6659,1.6624,1.6799,1.6802,1.6805,1.6804,1.6808,1.6812,0,0,0,0,0,1.6194,1.6241,1.6246,1.6263,1.6356,1.6421,1.6434,1.6462,1.6451,1.6476,1.6511,1.6518,1.6647,1.6624,1.664,1.667,1.6798,1.6801,1.6805,1.6802,1.6808,1.6812,0,0,0,0,0,0,1.6183,1.6249,1.6255,1.6322,1.6366,1.6424,1.6456,1.6466,1.6514,1.6513,1.6546,1.656,1.6624,1.6654,1.6627,1.6736,1.6722,1.6729,1.6714,1.6719,1.6723,1.6715,1.6629,0,0,0,0,0,1.6188,1.6235,1.629,1.6344,1.6365,1.6407,1.6436,1.6455,1.6502,1.652,1.656,1.6606,1.6657,1.669,1.6739,1.6808,1.6823,1.6837,1.6841,1.6844,1.685,1.6891,1.6898,1.6819,1.6819,1.6819,0,0,1.62,1.6241,1.6269,1.6343,1.6379,1.6427,1.6422,1.6474,1.6511,1.6528,1.6593,1.6624,1.6677,1.6745,1.6777,1.6772,1.6875,1.6849,1.6851,1.6856,1.6895,1.6903,1.6909,1.6822,1.6821,1.6821,0,0,1.6246,1.6281,1.633,1.6367,1.6422,1.6449,1.6461,1.6519,1.6539,1.6605,1.6619,1.6664,1.6751,1.6789,1.682,1.6882,1.6891,1.6897,1.6918,1.6957,1.6964,1.6969,1.6993,1.7001,1.6903,1.6903,1.6903,0,1.6253,1.6326,1.6355,1.6406,1.6439,1.6457,1.6508,1.6542,1.661,1.6633,1.6626,1.6736,1.6773,1.6851,1.6867,1.6891,1.6906,1.6891,1.696,1.6966,1.6972,1.6995,1.7003,1.6904,1.6904,1.6904,1.6903,0,1.6333,1.6384,1.6417,1.6483,1.652,1.657,1.6608,1.6642,1.6657,1.6686,1.6753,1.6799,1.6859,1.6878,1.6894,1.6959,1.6954,1.6953,1.694,1.698,1.7002,1.701,1.6904,1.6904,1.6904,1.6904,0,0,1.6374,1.6456,1.6468,1.6499,1.6561,1.6601,1.6654,1.6712,1.6741,1.6788,1.6834,1.6907,1.6907,1.6942,1.6962,1.6996,1.7044,1.6991,1.6993,1.7,1.7121,1.7122,1.7131,1.705,1.7052,1.7053,1.7117,0,1.6429,1.6522,1.655,1.6629,1.6677,1.6696,1.6742,1.6786,1.6814,1.686,1.6892,1.6944,1.6939,1.6961,1.6995,1.7031,1.7069,1.7026,1.7094,1.7097,1.7081,1.7143,1.7143,1.7201,1.7125,1.7127,1.7128,0,1.6504,1.6552,1.6636,1.6694,1.6715,1.6756,1.6812,1.6855,1.6906,1.6925,1.6964,1.6982,1.7039,1.7022,1.7102,1.7072,1.7102,1.7124,1.7127,1.7135,1.7115,1.7153,1.722,1.7229,1.7141,1.714,1.7139,0,1.6527,1.6613,1.6675,1.67,1.6769,1.6797,1.6827,1.6877,1.691,1.696,1.6983,1.7038,1.7069,1.7113,1.7145,1.713,1.7223,1.7208,1.7241,1.724,1.726,1.7258,1.7333,1.7278,1.7278,1.7277,1.7277,0,1.6585,1.6636,1.6686,1.6724,1.6782,1.6815,1.6872,1.6903,1.6947,1.6992,1.7011,1.7054,1.7094,1.7142,1.7168,1.723,1.7244,1.7262,1.7268,1.726,1.7258,1.7281,1.7278,1.728,1.7279,1.7279,1.7278,0,1.6621,1.6657,1.6725,1.6785,1.6801,1.6841,1.6893,1.6931,1.6961,1.7018,1.7033,1.708,1.7137,1.7174,1.7247,1.7265,1.7334,1.7339,1.7317,1.732,1.7351,1.7348,1.7443,1.7458,1.7392,1.7392,1.7393,0,1.6656,1.6695,1.6759,1.6791,1.6821,1.6872,1.6906,1.694,1.6976,1.7038,1.7069,1.7127,1.7176,1.7268,1.7309,1.7366,1.7372,1.7402,1.7381,1.7373,1.7374,1.7372,1.7376,1.7406,1.7406,1.7407,1.7407,0,1.6715,1.6731,1.678,1.6835,1.6876,1.6922,1.6968,1.6992,1.7034,1.7074,1.7133,1.717,1.7246,1.7304,1.7365,1.7397,1.741,1.7413,1.7424,1.7417,1.7402,1.7412,1.7327,1.7411,1.741,1.741,1.741,1.741,1.6752,1.6788,1.684,1.6894,1.6932,1.6975,1.7014,1.7049,1.7098,1.7162,1.7179,1.7241,1.7292,1.7375,1.7408,1.7458,1.7454,1.7469,1.7474,1.7477,1.7478,1.7394,1.7469,1.7469,1.7469,1.7469,1.7469,0,1.6812,1.6847,1.6896,1.696,1.7003,1.7011,1.7062,1.7098,1.7152,1.7198,1.7246,1.7315,1.7372,1.7418,1.7477,1.7508,1.7516,1.7523,1.7521,1.7529,1.7477,1.7462,1.7516,1.7516,1.7516,1.7516,1.7516,1.7516,1.6849,1.6912,1.6934,1.7017,1.7051,1.7111,1.714,1.718,1.7217,1.7293,1.734,1.737,1.7417,1.748,1.7533,1.7545,1.7567,1.7573,1.7586,1.7537,1.7532,1.7527,1.7514,1.7577,1.7577,1.7634,1.7634,1.7635]},{"header":{"parameterUnit":"m.s-1","parameterCategory":1,"la1":30.2991,"la2":30.254,"lo1":-89.0895,"lo2":-89.0444,"dy":0.0017,"dx":0.0017,"nx":28,"ny":28,"refTime":"2024-07-13T09:00:00:Z","depth":0,"parameterNumber":3,"parameterNumberName":"V-component_of_WINDS"},"data":[0,0,0,0,0,0,0,0,0,0,0,0,0,0,0,0,0,0,0,0,0,0,0,0,0,0,0,0,0,0,0,0,0,0,0,0,0,0,0,0,0,0,0,0,0,0,0,0,0,0,0,0,0,0,0,0,0,0,1.5406,1.5407,0,1.5557,1.5558,1.556,1.5639,1.5639,1.5639,1.5639,1.5791,1.5795,1.5798,0,0,0,0,0,0,0,0,0,0,0,0,0,1.5179,1.5182,1.5405,1.5407,1.5409,1.5556,1.5559,1.5561,1.5639,1.5639,1.5639,1.5639,1.5789,1.5794,1.5799,0,0,0,0,0,0,0,0,0,0,0,0,0,1.5298,1.5184,1.5405,1.5466,1.5473,1.5556,1.5559,1.5561,1.5639,1.5639,1.5639,1.5639,1.5788,1.5794,1.5799,1.5833,0,0,1.5818,1.582,0,0,0,0,0,0,0,0,1.5291,1.5306,1.5455,1.5462,1.547,1.5579,1.5534,1.5652,1.5639,1.5576,1.5639,1.5639,1.572,1.5731,1.5759,1.584,1.5846,1.5818,1.5822,1.5824,1.5826,0,0,0,0,0,0,0,1.5283,1.53,1.5465,1.5457,1.5466,1.5484,1.5501,1.5557,1.5645,1.5581,1.5587,1.5604,1.5724,1.5754,1.5764,1.5848,1.5818,1.5823,1.5827,1.5829,1.5959,1.5959,0,0,0,0,0,0,1.5265,1.5293,1.546,1.547,1.5379,1.5488,1.5507,1.5544,1.5645,1.566,1.5604,1.5607,1.5743,1.5757,1.5769,1.5813,1.5824,1.583,1.5833,1.5959,1.5959,1.5959,0,0,0,0,0,0,1.526,1.528,1.5454,1.5383,1.5407,1.5492,1.5532,1.5547,1.5577,1.5662,1.5677,1.5618,1.5744,1.5761,1.5816,1.5819,1.5832,1.5838,1.5959,1.5959,1.5959,1.59,0,0,0,0,0,0,1.5253,1.5277,1.5292,1.5383,1.541,1.55,1.5533,1.555,1.5587,1.5593,1.5679,1.5694,1.5745,1.5806,1.5821,1.5827,1.5842,1.5959,1.5959,1.5959,1.5902,1.5898,1.5895,0,0,0,0,0,1.5245,1.527,1.5293,1.5313,1.5431,1.55,1.5516,1.5575,1.5587,1.5602,1.5656,1.5691,1.5816,1.5811,1.5829,1.5837,1.596,1.5959,1.5959,1.5904,1.5899,1.5895,0,0,0,0,0,0,1.5178,1.5283,1.531,1.5365,1.5423,1.5513,1.5534,1.5568,1.5624,1.5627,1.5697,1.5716,1.5764,1.5806,1.5799,1.5872,1.5891,1.5894,1.5843,1.5839,1.5835,1.5824,1.5847,0,0,0,0,0,1.517,1.5218,1.5307,1.5347,1.5375,1.5449,1.5481,1.5522,1.5584,1.5609,1.5668,1.5726,1.5778,1.5811,1.5863,1.5908,1.5927,1.5922,1.5918,1.5914,1.5916,1.594,1.5938,1.5958,1.5958,1.5958,0,0,1.5153,1.5217,1.5243,1.5335,1.5385,1.5432,1.5469,1.5518,1.5553,1.5616,1.5672,1.5716,1.5785,1.5834,1.5858,1.587,1.5914,1.5914,1.5911,1.5915,1.5939,1.5937,1.5936,1.5958,1.5958,1.5958,0,0,1.5147,1.5201,1.5239,1.5287,1.5361,1.541,1.5418,1.5503,1.5535,1.5591,1.5639,1.568,1.5769,1.5815,1.585,1.5856,1.589,1.5871,1.5851,1.5873,1.5872,1.587,1.5871,1.587,1.5873,1.5873,1.5872,0,1.5117,1.5191,1.5254,1.5299,1.5337,1.5396,1.5433,1.5476,1.5564,1.5587,1.5599,1.571,1.5761,1.582,1.5821,1.5848,1.5858,1.5862,1.5867,1.5866,1.5866,1.5867,1.5867,1.587,1.587,1.587,1.5871,0,1.5149,1.5199,1.5221,1.5303,1.5343,1.5384,1.545,1.5483,1.5518,1.5564,1.5619,1.5681,1.5746,1.5763,1.5799,1.5826,1.5831,1.5854,1.5875,1.586,1.5862,1.5863,1.5866,1.5867,1.5868,1.5868,0,0,1.5109,1.5222,1.5229,1.5266,1.535,1.5389,1.543,1.5494,1.5519,1.5576,1.5611,1.5683,1.5704,1.5743,1.5784,1.5803,1.5801,1.5824,1.5826,1.5816,1.5831,1.5813,1.5813,1.5823,1.5823,1.5824,1.5825,0,1.5114,1.5193,1.5248,1.5305,1.535,1.5405,1.544,1.5494,1.5537,1.558,1.5627,1.5676,1.5701,1.5725,1.5746,1.5797,1.5805,1.5797,1.5855,1.5856,1.5836,1.5814,1.5796,1.5795,1.5826,1.5827,1.5827,0,1.5132,1.5186,1.5247,1.5323,1.5344,1.5375,1.5436,1.5477,1.5537,1.5567,1.5609,1.565,1.5693,1.5709,1.5768,1.5761,1.5788,1.5815,1.5817,1.5824,1.5841,1.582,1.5796,1.5795,1.5829,1.5829,1.5829,0,1.5094,1.5182,1.5229,1.5259,1.5349,1.5369,1.5407,1.5468,1.5502,1.5554,1.5575,1.5632,1.5662,1.5703,1.5757,1.5764,1.5809,1.5831,1.5834,1.5832,1.5842,1.584,1.582,1.5859,1.5859,1.5859,1.5859,0,1.5094,1.5129,1.5213,1.5242,1.5282,1.5343,1.538,1.5422,1.5475,1.5511,1.5561,1.5593,1.5662,1.5702,1.5744,1.5785,1.5799,1.5822,1.5833,1.5818,1.5815,1.5836,1.5838,1.5859,1.5859,1.5859,1.5859,0,1.506,1.5118,1.5173,1.5252,1.5272,1.5297,1.5365,1.5393,1.5437,1.5482,1.5496,1.5565,1.5614,1.5671,1.574,1.5768,1.5804,1.5821,1.5784,1.579,1.579,1.5788,1.5783,1.5784,1.5821,1.5821,1.5821,0,1.5056,1.5084,1.5165,1.5193,1.523,1.5274,1.5308,1.5368,1.54,1.5469,1.5488,1.5541,1.5587,1.5662,1.5717,1.5768,1.5786,1.578,1.5794,1.5776,1.5784,1.5781,1.5783,1.5776,1.5776,1.5775,1.5775,0,1.5043,1.5069,1.5117,1.5172,1.5211,1.5257,1.5306,1.5326,1.5394,1.5428,1.5479,1.5514,1.5582,1.5633,1.569,1.5727,1.5761,1.5769,1.5773,1.5757,1.5734,1.5745,1.5773,1.577,1.577,1.577,1.5771,1.5771,1.5024,1.505,1.511,1.5159,1.5202,1.5245,1.5275,1.5321,1.5365,1.5426,1.5457,1.5506,1.5562,1.5643,1.5678,1.5715,1.5727,1.5733,1.5734,1.5734,1.5728,1.5728,1.5726,1.5726,1.5727,1.5727,1.5727,0,1.5012,1.5052,1.5097,1.5163,1.52,1.5229,1.5283,1.5312,1.5355,1.5404,1.5447,1.5503,1.5552,1.5609,1.566,1.5679,1.5695,1.569,1.5689,1.5697,1.5716,1.5707,1.5676,1.5676,1.5676,1.5676,1.5676,1.5676,1.5011,1.5055,1.5087,1.5151,1.5191,1.524,1.5268,1.5307,1.5346,1.5407,1.5447,1.5484,1.5535,1.559,1.5634,1.5649,1.5665,1.5655,1.5674,1.5691,1.5696,1.57,1.5692,1.5658,1.5658,1.5652,1.5652,1.5652]}]]